TimeEDT,TemperatureF,Dew PointF,Humidity,Sea Level PressureIn,VisibilityMPH,Wind Direction,Wind SpeedMPH,Gust SpeedMPH,PrecipitationIn,Events,Conditions,WindDirDegrees,DateUTC
12:56 AM,63.9,63.0,97,29.96,5.0,Calm,Calm,-,N/A,,Clear,0,2013-08-29 04:56:00
1:21 AM,62.6,62.6,100,29.98,2.5,East,3.5,-,N/A,,Clear,90,2013-08-29 05:21:00
1:36 AM,62.6,62.6,100,29.98,1.2,Calm,Calm,-,N/A,,Clear,0,2013-08-29 05:36:00
1:38 AM,62.6,60.8,94,29.98,1.0,Calm,Calm,-,N/A,,Mist,0,2013-08-29 05:38:00
1:40 AM,62.6,60.8,94,29.98,0.5,Calm,Calm,-,N/A,Fog,Fog,0,2013-08-29 05:40:00
1:56 AM,63.0,61.9,96,29.96,1.2,Calm,Calm,-,N/A,,Mostly Cloudy,0,2013-08-29 05:56:00
2:03 AM,62.6,62.6,100,29.98,1.8,Calm,Calm,-,N/A,,Overcast,0,2013-08-29 06:03:00
2:05 AM,62.6,62.6,100,29.98,3.0,Calm,Calm,-,N/A,,Overcast,0,2013-08-29 06:05:00
2:10 AM,62.6,62.6,100,29.98,1.8,Calm,Calm,-,N/A,,Overcast,0,2013-08-29 06:10:00
2:13 AM,62.6,62.6,100,29.98,1.0,Calm,Calm,-,N/A,,Overcast,0,2013-08-29 06:13:00
2:16 AM,62.6,62.6,100,29.98,0.5,Calm,Calm,-,N/A,Fog,Fog,0,2013-08-29 06:16:00
2:27 AM,64.4,62.6,94,29.98,0.2,Calm,Calm,-,N/A,Fog,Fog,0,2013-08-29 06:27:00
2:35 AM,64.4,64.4,100,29.98,0.2,Calm,Calm,-,N/A,Fog,Fog,0,2013-08-29 06:35:00
2:56 AM,63.9,63.9,100,29.96,0.2,East,4.6,-,N/A,Fog,Fog,100,2013-08-29 06:56:00
3:56 AM,63.9,63.9,100,29.98,0.2,Calm,Calm,-,N/A,Fog,Fog,0,2013-08-29 07:56:00
4:56 AM,64.9,63.9,96,29.98,0.2,Calm,Calm,-,N/A,Fog,Fog,0,2013-08-29 08:56:00
5:46 AM,64.4,64.4,100,30.01,0.5,Calm,Calm,-,N/A,Fog,Fog,0,2013-08-29 09:46:00
5:56 AM,63.9,63.9,100,30.00,0.5,Calm,Calm,-,N/A,Fog,Fog,0,2013-08-29 09:56:00
6:27 AM,64.4,64.4,100,30.02,0.2,East,3.5,-,N/A,Fog,Fog,90,2013-08-29 10:27:00
6:56 AM,63.9,63.9,100,30.02,0.2,East,3.5,-,N/A,Fog,Fog,90,2013-08-29 10:56:00
7:11 AM,64.4,64.4,100,30.03,0.2,Calm,Calm,-,N/A,Fog,Fog,0,2013-08-29 11:11:00
7:56 AM,64.9,64.9,100,30.04,0.1,Calm,Calm,-,N/A,Fog,Fog,0,2013-08-29 11:56:00
8:56 AM,66.9,66.9,100,30.04,0.1,Calm,Calm,-,N/A,Fog,Fog,0,2013-08-29 12:56:00
9:33 AM,68.0,66.2,94,30.06,0.1,West,3.5,-,N/A,Fog,Fog,280,2013-08-29 13:33:00
9:44 AM,68.0,68.0,100,30.06,0.1,NW,3.5,-,N/A,Fog,Fog,320,2013-08-29 13:44:00
9:56 AM,68.0,66.9,96,30.06,0.1,West,3.5,-,N/A,Fog,Fog,280,2013-08-29 13:56:00
10:12 AM,68.0,66.2,94,30.07,0.1,NW,5.8,-,N/A,Fog,Fog,310,2013-08-29 14:12:00
10:20 AM,68.0,66.2,94,30.07,0.8,NNW,4.6,-,N/A,,Mist,330,2013-08-29 14:20:00
10:56 AM,68.0,66.9,96,30.07,1.0,Calm,Calm,-,N/A,,Mist,0,2013-08-29 14:56:00
11:30 AM,68.0,68.0,100,30.08,2.0,NW,3.5,-,N/A,,Overcast,320,2013-08-29 15:30:00
11:56 AM,68.9,68.0,97,30.08,2.0,Calm,Calm,-,N/A,,Overcast,0,2013-08-29 15:56:00
12:31 PM,69.8,68.0,94,30.09,6.0,NNW,5.8,-,N/A,,Overcast,340,2013-08-29 16:31:00
12:56 PM,72.0,68.0,87,30.06,6.0,WNW,3.5,-,N/A,,Overcast,300,2013-08-29 16:56:00
1:56 PM,75.9,68.9,79,30.06,10.0,Calm,Calm,-,N/A,,Mostly Cloudy,0,2013-08-29 17:56:00
2:56 PM,77.9,68.0,71,30.04,8.0,NW,6.9,-,N/A,,Mostly Cloudy,310,2013-08-29 18:56:00
3:56 PM,79.0,68.9,71,30.03,10.0,WNW,6.9,-,N/A,,Scattered Clouds,300,2013-08-29 19:56:00
4:56 PM,79.9,68.0,67,30.02,10.0,WNW,10.4,-,N/A,,Scattered Clouds,300,2013-08-29 20:56:00
5:56 PM,79.0,68.0,69,30.03,10.0,North,8.1,-,N/A,,Mostly Cloudy,360,2013-08-29 21:56:00
6:56 PM,75.9,68.0,76,30.04,10.0,North,5.8,-,N/A,,Partly Cloudy,350,2013-08-29 22:56:00
7:56 PM,70.9,65.8,84,30.05,10.0,North,4.6,-,N/A,,Clear,360,2013-08-29 23:56:00
8:56 PM,64.9,63.9,96,30.05,10.0,Calm,Calm,-,N/A,,Clear,0,2013-08-30 00:56:00
9:56 PM,63.0,61.9,96,30.06,10.0,Calm,Calm,-,N/A,,Clear,0,2013-08-30 01:56:00
10:06 PM,64.4,62.6,94,30.07,1.0,Calm,Calm,-,N/A,,Clear,0,2013-08-30 02:06:00
10:14 PM,62.6,62.6,100,30.07,0.5,Calm,Calm,-,N/A,Fog,Fog,0,2013-08-30 02:14:00
10:17 PM,62.6,62.6,100,30.07,1.0,North,3.5,-,N/A,,Clear,350,2013-08-30 02:17:00
10:19 PM,62.6,62.6,100,30.07,1.5,North,3.5,-,N/A,,Clear,350,2013-08-30 02:19:00
10:22 PM,62.6,62.6,100,30.07,3.0,Calm,Calm,-,N/A,,Clear,0,2013-08-30 02:22:00
10:44 PM,62.6,60.8,94,30.07,2.0,Calm,Calm,-,N/A,,Clear,0,2013-08-30 02:44:00
10:56 PM,61.9,61.0,97,30.06,3.0,Calm,Calm,-,N/A,,Clear,0,2013-08-30 02:56:00
11:04 PM,60.8,60.8,100,30.07,1.8,Calm,Calm,-,N/A,,Clear,0,2013-08-30 03:04:00
11:07 PM,60.8,60.8,100,30.07,1.0,Calm,Calm,-,N/A,,Clear,0,2013-08-30 03:07:00
11:10 PM,60.8,60.8,100,30.06,0.5,Calm,Calm,-,N/A,Fog,Fog,0,2013-08-30 03:10:00
11:19 PM,60.8,60.8,100,30.07,0.2,Calm,Calm,-,N/A,Fog,Fog,0,2013-08-30 03:19:00
11:30 PM,60.8,60.8,100,30.07,0.5,Calm,Calm,-,N/A,Fog,Fog,0,2013-08-30 03:30:00
11:39 PM,-9999,-9999,N/A,-9999,-9999.0,Calm,Calm,-,N/A,,Unknown,0,2013-08-30 03:39:00
11:47 PM,60.8,60.8,100,30.06,1.2,Calm,Calm,-,N/A,,Overcast,0,2013-08-30 03:47:00
11:56 PM,61.0,61.0,100,30.05,1.2,Calm,Calm,-,N/A,,Overcast,0,2013-08-30 03:56:00